[[{"header":{"parameterUnit":"m.s-1","parameterCategory":2,"la1":30.2991,"la2":30.254,"lo1":-89.0895,"lo2":-89.0444,"dy":0.0017,"dx":0.0017,"nx":28,"ny":28,"refTime":"2023-11-04T03:00:00:Z","depth":"0","parameterNumber":2,"parameterNumberName":"U-component_of_CURRENTS"},"data":[0,0,0,0,0,0,0,0,0,0,0,0,0,0,0,0,0,0,0,0,0,0,0,0,0,0,0,0,0,0,0,0,0,0,0,0,0,0,0,0,0,0,0,0,0,0,0,0,0,0,0,0,0,0,0,0,0,0,-0.3032,-0.3031,0,-0.2949,-0.2948,-0.2947,-0.2861,-0.286,-0.2859,-0.2859,-0.2748,-0.2746,-0.2743,0,0,0,0,0,0,0,0,0,0,0,0,0,-0.3052,-0.3053,-0.3032,-0.3031,-0.303,-0.295,-0.2948,-0.2947,-0.2861,-0.286,-0.2859,-0.2858,-0.2748,-0.2746,-0.2743,0,0,0,0,0,0,0,0,0,0,0,0,0,-0.3011,-0.3053,-0.3032,-0.298,-0.2975,-0.295,-0.2948,-0.2946,-0.2862,-0.286,-0.2859,-0.2858,-0.2749,-0.2746,-0.2743,-0.275,0,0,-0.2733,-0.2732,0,0,0,0,0,0,0,0,-0.3014,-0.301,-0.2989,-0.2984,-0.2978,-0.2917,-0.2915,-0.288,-0.2862,-0.2901,-0.2859,-0.2857,-0.2805,-0.2797,-0.278,-0.2745,-0.2741,-0.2733,-0.2731,-0.273,-0.2729,0,0,0,0,0,0,0,-0.3017,-0.3013,-0.2996,-0.2988,-0.2982,-0.294,-0.2933,-0.2907,-0.2859,-0.2898,-0.2892,-0.2888,-0.2801,-0.2784,-0.2777,-0.2739,-0.2733,-0.273,-0.2728,-0.2727,-0.2709,-0.271,0,0,0,0,0,0,-0.3038,-0.3017,-0.2999,-0.2994,-0.2996,-0.2941,-0.2933,-0.2935,-0.2859,-0.2848,-0.289,-0.2885,-0.279,-0.2781,-0.2773,-0.2793,-0.273,-0.2727,-0.2725,-0.2707,-0.2709,-0.2711,0,0,0,0,0,0,-0.3039,-0.3038,-0.3002,-0.3005,-0.2998,-0.2943,-0.2946,-0.2935,-0.2917,-0.2854,-0.2841,-0.2885,-0.2788,-0.2777,-0.2762,-0.2787,-0.2725,-0.2722,-0.2706,-0.2708,-0.271,-0.2822,0,0,0,0,0,0,-0.304,-0.3039,-0.3041,-0.3007,-0.2999,-0.3011,-0.2947,-0.2934,-0.2919,-0.2911,-0.2846,-0.2834,-0.2786,-0.2767,-0.2759,-0.2781,-0.272,-0.2704,-0.2707,-0.2709,-0.2817,-0.2828,-0.2838,0,0,0,0,0,-0.3041,-0.3062,-0.3042,-0.3039,-0.3006,-0.3013,-0.3006,-0.2958,-0.292,-0.2933,-0.2881,-0.2836,-0.2778,-0.2766,-0.2756,-0.2778,-0.2703,-0.2706,-0.2709,-0.2812,-0.2826,-0.2837,0,0,0,0,0,0,-0.3074,-0.3054,-0.3031,-0.3044,-0.3038,-0.3,-0.2998,-0.297,-0.2938,-0.292,-0.2854,-0.2841,-0.2833,-0.2796,-0.2785,-0.2781,-0.2733,-0.2734,-0.2815,-0.2827,-0.2837,-0.2835,-0.2717,0,0,0,0,0,-0.3084,-0.3084,-0.3072,-0.3078,-0.308,-0.304,-0.3031,-0.3007,-0.2977,-0.296,-0.2912,-0.2865,-0.284,-0.2827,-0.2793,-0.2798,-0.2762,-0.2805,-0.2816,-0.2825,-0.2817,-0.2834,-0.2846,-0.2721,-0.2721,-0.2721,0,0,-0.3091,-0.3083,-0.3079,-0.3083,-0.3064,-0.3083,-0.3031,-0.3032,-0.3037,-0.2955,-0.2938,-0.2898,-0.2849,-0.2847,-0.2841,-0.2819,-0.2835,-0.2829,-0.2837,-0.2823,-0.2839,-0.2851,-0.2861,-0.2723,-0.2723,-0.2723,0,0,-0.3126,-0.3109,-0.313,-0.3136,-0.3131,-0.3112,-0.3122,-0.3096,-0.3075,-0.3071,-0.3008,-0.2999,-0.2946,-0.2929,-0.291,-0.2965,-0.2888,-0.294,-0.2993,-0.3011,-0.3022,-0.3031,-0.2976,-0.2979,-0.2949,-0.2949,-0.2949,0,-0.3139,-0.3164,-0.3139,-0.3172,-0.3176,-0.3135,-0.3168,-0.3152,-0.312,-0.3113,-0.3081,-0.3023,-0.2994,-0.2996,-0.3006,-0.2992,-0.2949,-0.2952,-0.3026,-0.3034,-0.3041,-0.2983,-0.2985,-0.2955,-0.2954,-0.2954,-0.2953,0,-0.3193,-0.3217,-0.3235,-0.3253,-0.3258,-0.3283,-0.3266,-0.3268,-0.3233,-0.3206,-0.3196,-0.3154,-0.3127,-0.3116,-0.3071,-0.31,-0.3034,-0.3038,-0.2997,-0.3061,-0.2994,-0.2995,-0.2963,-0.2961,-0.296,-0.2958,0,0,-0.3207,-0.3265,-0.3268,-0.3288,-0.3305,-0.3309,-0.3338,-0.3348,-0.3342,-0.332,-0.3312,-0.3295,-0.3258,-0.3235,-0.3188,-0.3187,-0.3203,-0.3124,-0.3123,-0.3072,-0.3173,-0.3004,-0.2987,-0.3212,-0.3214,-0.3215,-0.3097,0,-0.3257,-0.3336,-0.3346,-0.3396,-0.3432,-0.342,-0.3436,-0.3432,-0.3409,-0.3388,-0.3363,-0.3328,-0.3308,-0.3279,-0.3294,-0.3217,-0.321,-0.3229,-0.3115,-0.311,-0.2957,-0.2986,-0.2852,-0.2725,-0.3097,-0.3097,-0.3097,0,-0.3301,-0.3348,-0.3428,-0.3461,-0.3471,-0.349,-0.3494,-0.3503,-0.3485,-0.3463,-0.3458,-0.3403,-0.3399,-0.3363,-0.3323,-0.3326,-0.3261,-0.32,-0.3195,-0.2996,-0.2942,-0.2726,-0.2711,-0.2688,-0.3096,-0.3096,-0.3096,0,-0.3309,-0.339,-0.345,-0.3469,-0.3512,-0.3533,-0.3534,-0.3528,-0.3517,-0.3498,-0.3476,-0.3469,-0.3447,-0.3404,-0.3297,-0.3312,-0.3199,-0.3227,-0.301,-0.2995,-0.2836,-0.2804,-0.2787,-0.32,-0.3201,-0.3201,-0.3201,0,-0.3354,-0.339,-0.3459,-0.3491,-0.3515,-0.3539,-0.3545,-0.3546,-0.3537,-0.3513,-0.3507,-0.348,-0.3456,-0.3384,-0.3299,-0.3128,-0.3228,-0.3,-0.2963,-0.2864,-0.2838,-0.2772,-0.2815,-0.3197,-0.3198,-0.3198,-0.3199,0,-0.3348,-0.3409,-0.3464,-0.3523,-0.3525,-0.3533,-0.3533,-0.3529,-0.3537,-0.351,-0.3501,-0.3493,-0.3391,-0.3297,-0.3193,-0.3115,-0.2902,-0.2883,-0.2718,-0.2664,-0.2444,-0.2498,-0.2407,-0.2343,-0.2644,-0.2639,-0.2635,0,-0.3352,-0.3394,-0.3458,-0.3461,-0.3485,-0.3498,-0.349,-0.3511,-0.3505,-0.3505,-0.348,-0.3399,-0.3285,-0.3046,-0.286,-0.2638,-0.2689,-0.2429,-0.2458,-0.2391,-0.2428,-0.2481,-0.2441,-0.2283,-0.2277,-0.2272,-0.2267,0,-0.3339,-0.3369,-0.341,-0.3408,-0.3411,-0.3413,-0.3416,-0.3402,-0.3424,-0.3393,-0.3316,-0.3222,-0.2999,-0.2702,-0.2433,-0.2317,-0.2372,-0.2308,-0.2321,-0.2194,-0.2175,-0.2107,-0.2365,-0.2219,-0.2224,-0.2228,-0.223,-0.2232,-0.3291,-0.3312,-0.3341,-0.3305,-0.33,-0.326,-0.317,-0.3202,-0.3135,-0.2982,-0.3045,-0.2784,-0.2581,-0.2157,-0.2048,-0.1837,-0.1965,-0.1796,-0.1875,-0.194,-0.186,-0.1958,-0.1728,-0.173,-0.1732,-0.1733,-0.1734,0,-0.3222,-0.3225,-0.3208,-0.3141,-0.3003,-0.3072,-0.3035,-0.2899,-0.2734,-0.2648,-0.2472,-0.2154,-0.1886,-0.1763,-0.1553,-0.145,-0.1467,-0.1446,-0.1544,-0.1532,-0.1667,-0.1631,-0.1272,-0.1272,-0.1272,-0.1272,-0.1272,-0.1272,-0.3175,-0.3137,-0.3106,-0.2816,-0.2726,-0.2491,-0.24,-0.2302,-0.2178,-0.1854,-0.1638,-0.1471,-0.1491,-0.1535,-0.1413,-0.1338,-0.1358,-0.1279,-0.1355,-0.1514,-0.1556,-0.1596,-0.1571,-0.1206,-0.1206,-0.1149,-0.1149,-0.1149]},{"header":{"parameterUnit":"m.s-1","parameterCategory":2,"la1":30.2991,"la2":30.254,"lo1":-89.0895,"lo2":-89.0444,"dy":0.0017,"dx":0.0017,"nx":28,"ny":28,"refTime":"2023-11-04T03:00:00:Z","depth":"0","parameterNumber":3,"parameterNumberName":"V-component_of_CURRENTS"},"data":[0,0,0,0,0,0,0,0,0,0,0,0,0,0,0,0,0,0,0,0,0,0,0,0,0,0,0,0,0,0,0,0,0,0,0,0,0,0,0,0,0,0,0,0,0,0,0,0,0,0,0,0,0,0,0,0,0,0,-0.0759,-0.0759,0,-0.0652,-0.065,-0.0649,-0.0594,-0.0594,-0.0594,-0.0595,-0.0359,-0.0353,-0.0346,0,0,0,0,0,0,0,0,0,0,0,0,0,-0.0772,-0.0773,-0.076,-0.0759,-0.0758,-0.0652,-0.065,-0.0649,-0.0594,-0.0594,-0.0594,-0.0595,-0.0361,-0.0353,-0.0346,0,0,0,0,0,0,0,0,0,0,0,0,0,-0.0723,-0.0773,-0.076,-0.0721,-0.0716,-0.0653,-0.065,-0.0648,-0.0594,-0.0594,-0.0595,-0.0595,-0.0364,-0.0354,-0.0344,-0.0274,0,0,-0.0314,-0.031,0,0,0,0,0,0,0,0,-0.0726,-0.0722,-0.0727,-0.0723,-0.0718,-0.064,-0.0569,-0.0518,-0.0593,-0.0636,-0.0595,-0.0595,-0.0443,-0.0427,-0.0402,-0.0263,-0.0253,-0.0313,-0.0308,-0.0303,-0.03,0,0,0,0,0,0,0,-0.0729,-0.0725,-0.0713,-0.0726,-0.0721,-0.0659,-0.0653,-0.0558,-0.0533,-0.0632,-0.0629,-0.0623,-0.044,-0.0412,-0.0396,-0.0249,-0.0314,-0.0305,-0.0299,-0.0295,-0.0043,-0.0043,0,0,0,0,0,0,-0.0758,-0.073,-0.0716,-0.071,-0.0728,-0.0659,-0.0653,-0.0662,-0.0536,-0.052,-0.0623,-0.0621,-0.0428,-0.0407,-0.0387,-0.0326,-0.0303,-0.0294,-0.0288,-0.0044,-0.0043,-0.0042,0,0,0,0,0,0,-0.0759,-0.0759,-0.0721,-0.0719,-0.0711,-0.066,-0.0669,-0.0659,-0.0634,-0.0532,-0.0512,-0.0609,-0.0428,-0.0401,-0.0311,-0.0315,-0.029,-0.0281,-0.0045,-0.0044,-0.0043,-0.0184,0,0,0,0,0,0,-0.076,-0.076,-0.0767,-0.0722,-0.0712,-0.0687,-0.0669,-0.0657,-0.0631,-0.0628,-0.0512,-0.0492,-0.0426,-0.0327,-0.0302,-0.0301,-0.0273,-0.0046,-0.0045,-0.0043,-0.018,-0.0187,-0.0194,0,0,0,0,0,-0.0761,-0.0775,-0.0768,-0.0766,-0.0727,-0.0687,-0.0675,-0.0637,-0.0631,-0.0616,-0.0546,-0.0495,-0.03,-0.0318,-0.0289,-0.0286,-0.0047,-0.0045,-0.0043,-0.0177,-0.0186,-0.0194,0,0,0,0,0,0,-0.0776,-0.0769,-0.0761,-0.0771,-0.0734,-0.068,-0.0663,-0.064,-0.0575,-0.0569,-0.0479,-0.0452,-0.0378,-0.0302,-0.0325,-0.0206,-0.0166,-0.0158,-0.0277,-0.0285,-0.0291,-0.0324,-0.0265,0,0,0,0,0,-0.0787,-0.0801,-0.077,-0.0773,-0.076,-0.0712,-0.069,-0.0666,-0.0608,-0.0581,-0.0506,-0.0419,-0.0345,-0.0295,-0.0211,-0.0137,-0.0084,-0.0114,-0.0121,-0.0128,-0.0132,-0.009,-0.0095,-0.0037,-0.0037,-0.0037,0,0,-0.0795,-0.0791,-0.0799,-0.0777,-0.0746,-0.0742,-0.0699,-0.067,-0.0661,-0.0561,-0.0513,-0.0437,-0.033,-0.0263,-0.0222,-0.0201,-0.0109,-0.0126,-0.0133,-0.0133,-0.0089,-0.0095,-0.01,-0.0036,-0.0036,-0.0036,0,0,-0.0828,-0.0813,-0.0841,-0.0817,-0.0785,-0.0754,-0.0753,-0.0699,-0.0667,-0.0608,-0.0547,-0.048,-0.0348,-0.0292,-0.0243,-0.0228,-0.0152,-0.0192,-0.0249,-0.0209,-0.0215,-0.0219,-0.0145,-0.0141,-0.0193,-0.0193,-0.0193,0,-0.084,-0.0877,-0.0835,-0.085,-0.0842,-0.0772,-0.0791,-0.0741,-0.0665,-0.0644,-0.0607,-0.0466,-0.0368,-0.0318,-0.0306,-0.0248,-0.0201,-0.0237,-0.0224,-0.0227,-0.0229,-0.0152,-0.0146,-0.02,-0.0199,-0.0198,-0.0198,0,-0.09,-0.0921,-0.0926,-0.0937,-0.0911,-0.0909,-0.085,-0.082,-0.0773,-0.0724,-0.0659,-0.0544,-0.0465,-0.0423,-0.0348,-0.0316,-0.0269,-0.0249,-0.022,-0.0245,-0.0159,-0.0152,-0.0209,-0.0207,-0.0205,-0.0203,0,0,-0.0961,-0.0976,-0.0978,-0.1001,-0.0961,-0.0951,-0.0931,-0.0898,-0.0895,-0.0805,-0.0795,-0.0663,-0.0604,-0.0544,-0.0458,-0.0409,-0.036,-0.0334,-0.0329,-0.0289,-0.0249,-0.0138,-0.0117,-0.0351,-0.0351,-0.0351,-0.018,0,-0.1027,-0.1095,-0.107,-0.1112,-0.1144,-0.1076,-0.1067,-0.1017,-0.095,-0.0908,-0.0803,-0.0746,-0.0649,-0.0618,-0.0553,-0.0416,-0.0347,-0.0406,-0.0204,-0.0197,-0.0121,-0.0108,-0.0059,0.0104,-0.0172,-0.017,-0.0169,0,-0.1109,-0.1144,-0.1218,-0.123,-0.1233,-0.1238,-0.1219,-0.1198,-0.1113,-0.1058,-0.0992,-0.0894,-0.0798,-0.0716,-0.0521,-0.0567,-0.0407,-0.03,-0.0291,-0.0135,-0.0071,0.0087,0.0129,0.0279,-0.0156,-0.0157,-0.0158,0,-0.1211,-0.1245,-0.1315,-0.1319,-0.1319,-0.1332,-0.1319,-0.1256,-0.1246,-0.1161,-0.1144,-0.1014,-0.0937,-0.0778,-0.0505,-0.0526,-0.0272,-0.0279,-0.0028,-0.0018,0.0095,0.0115,0.0281,-0.0132,-0.0133,-0.0133,-0.0134,0,-0.1322,-0.1367,-0.137,-0.1414,-0.1473,-0.1429,-0.1473,-0.143,-0.1384,-0.1374,-0.1234,-0.1171,-0.0948,-0.0759,-0.0543,-0.0237,-0.0295,-0.0025,0.0031,0.0054,0.0067,0.0261,0.0319,-0.0127,-0.0128,-0.0129,-0.0131,0,-0.1446,-0.145,-0.1528,-0.154,-0.1538,-0.1586,-0.1584,-0.1616,-0.1547,-0.1534,-0.1517,-0.1291,-0.1017,-0.0756,-0.0438,-0.0264,0.0118,0.0133,0.0172,0.023,0.055,0.0598,0.0843,0.095,0.038,0.0384,0.0387,0,-0.1529,-0.159,-0.1629,-0.1672,-0.1685,-0.1731,-0.1767,-0.1714,-0.1725,-0.1583,-0.1575,-0.1299,-0.102,-0.0506,-0.0159,0.0228,0.0343,0.0468,0.0434,0.0594,0.0687,0.0698,0.0769,0.0539,0.0543,0.0546,0.0549,0,-0.1685,-0.1694,-0.1752,-0.1818,-0.1871,-0.1929,-0.1951,-0.1959,-0.1882,-0.179,-0.1536,-0.1285,-0.0764,-0.0248,0.0226,0.0433,0.0571,0.0549,0.0691,0.0816,0.0862,0.0984,0.042,0.0579,0.0576,0.0574,0.0572,0.0571,-0.1788,-0.1862,-0.191,-0.1956,-0.2013,-0.2051,-0.2043,-0.1988,-0.1899,-0.1586,-0.1429,-0.0884,-0.0361,0.0361,0.0582,0.0973,0.0899,0.1056,0.1102,0.1099,0.12,0.0728,0.0959,0.0958,0.0958,0.0957,0.0956,0,-0.1932,-0.1971,-0.203,-0.2066,-0.2084,-0.2097,-0.2102,-0.1999,-0.1771,-0.1349,-0.0961,-0.0204,0.0357,0.0814,0.1298,0.1494,0.1504,0.1566,0.1567,0.1615,0.1187,0.119,0.1509,0.1509,0.1508,0.1508,0.1508,0.1508,-0.2011,-0.2103,-0.2092,-0.2084,-0.2077,-0.2047,-0.2007,-0.1788,-0.1455,-0.0679,-0.0057,0.0402,0.0846,0.1477,0.1889,0.1919,0.2071,0.2056,0.2147,0.1817,0.177,0.1726,0.1742,0.2172,0.2173,0.2543,0.2547,0.255]}],[{"header":{"parameterUnit":"m.s-1","parameterCategory":2,"la1":30.2991,"la2":30.254,"lo1":-89.0895,"lo2":-89.0444,"dy":0.0017,"dx":0.0017,"nx":28,"ny":28,"refTime":"2023-11-04T03:00:00:Z","depth":"2","parameterNumber":2,"parameterNumberName":"U-component_of_CURRENTS"},"data":[0,0,0,0,0,0,0,0,0,0,0,0,0,0,0,0,0,0,0,0,0,0,0,0,0,0,0,0,0,0,0,0,0,0,0,0,0,0,0,0,0,0,0,0,0,0,0,0,0,0,0,0,0,0,0,0,0,0,-0.2358,-0.2358,0,-0.2399,-0.24,-0.2401,-0.2462,-0.2463,-0.2463,-0.2464,-0.2557,-0.2558,-0.256,0,0,0,0,0,0,0,0,0,0,0,0,0,-0.2289,-0.2291,-0.2358,-0.2358,-0.2358,-0.2399,-0.24,-0.2401,-0.2462,-0.2463,-0.2463,-0.2464,-0.2556,-0.2558,-0.256,0,0,0,0,0,0,0,0,0,0,0,0,0,-0.2328,-0.2291,-0.2358,-0.2391,-0.2394,-0.2399,-0.24,-0.2401,-0.2462,-0.2463,-0.2464,-0.2465,-0.2555,-0.2558,-0.2561,-0.2556,0,0,-0.2569,-0.257,0,0,0,0,0,0,0,0,-0.2325,-0.2331,-0.2386,-0.2388,-0.2392,-0.2423,-0.2409,-0.2454,-0.2461,-0.244,-0.2464,-0.2465,-0.2513,-0.2519,-0.253,-0.2561,-0.2565,-0.2569,-0.2571,-0.2572,-0.2573,0,0,0,0,0,0,0,-0.2323,-0.2329,-0.2379,-0.2386,-0.2389,-0.2388,-0.2395,-0.2418,-0.2474,-0.2442,-0.2446,-0.2443,-0.2516,-0.2527,-0.2533,-0.2566,-0.2569,-0.2571,-0.2573,-0.2574,-0.2749,-0.2752,0,0,0,0,0,0,-0.2311,-0.2327,-0.2377,-0.2379,-0.2356,-0.2388,-0.2397,-0.2415,-0.2473,-0.2481,-0.2442,-0.2446,-0.2522,-0.2529,-0.2536,-0.2639,-0.2572,-0.2574,-0.2576,-0.2746,-0.2749,-0.2753,0,0,0,0,0,0,-0.231,-0.2316,-0.2376,-0.2349,-0.2356,-0.2388,-0.2408,-0.2415,-0.2465,-0.2472,-0.2482,-0.2488,-0.2523,-0.2532,-0.2625,-0.2639,-0.2576,-0.2578,-0.2742,-0.2747,-0.2751,-0.2777,0,0,0,0,0,0,-0.2308,-0.2316,-0.2367,-0.2349,-0.2357,-0.2393,-0.2407,-0.2415,-0.2457,-0.2463,-0.2514,-0.2521,-0.2525,-0.2621,-0.2627,-0.2641,-0.258,-0.2738,-0.2744,-0.275,-0.2772,-0.2781,-0.2789,0,0,0,0,0,-0.2306,-0.2376,-0.2369,-0.2377,-0.2413,-0.2393,-0.2398,-0.2425,-0.2458,-0.2477,-0.2549,-0.2522,-0.266,-0.2627,-0.2633,-0.2648,-0.2736,-0.2743,-0.2749,-0.2768,-0.2779,-0.2789,0,0,0,0,0,0,-0.2374,-0.2387,-0.238,-0.2452,-0.2421,-0.2402,-0.2453,-0.2448,-0.2517,-0.2561,-0.2568,-0.2581,-0.2652,-0.2669,-0.2631,-0.2721,-0.2689,-0.2698,-0.2702,-0.2712,-0.2721,-0.27,-0.2583,0,0,0,0,0,-0.2405,-0.246,-0.243,-0.2477,-0.2484,-0.247,-0.2485,-0.2487,-0.252,-0.2553,-0.259,-0.2647,-0.2677,-0.2715,-0.2743,-0.2807,-0.275,-0.2823,-0.2832,-0.2839,-0.2832,-0.2742,-0.2739,-0.2775,-0.2775,-0.2775,0,0,-0.2427,-0.2453,-0.2476,-0.2495,-0.2497,-0.2488,-0.2486,-0.2518,-0.251,-0.2554,-0.2627,-0.2674,-0.2702,-0.2765,-0.2798,-0.2789,-0.2809,-0.2848,-0.2853,-0.2842,-0.2748,-0.2743,-0.2739,-0.2779,-0.2779,-0.2778,0,0,-0.245,-0.2537,-0.2557,-0.254,-0.2546,-0.2558,-0.2568,-0.2574,-0.2595,-0.2648,-0.2679,-0.2765,-0.2813,-0.2845,-0.2859,-0.2943,-0.2846,-0.2946,-0.2982,-0.2895,-0.2888,-0.2882,-0.2826,-0.2814,-0.2962,-0.2962,-0.2963,0,-0.2463,-0.2496,-0.2551,-0.2538,-0.2542,-0.2585,-0.2568,-0.2588,-0.2622,-0.2639,-0.2684,-0.2789,-0.2844,-0.2882,-0.2935,-0.2956,-0.2885,-0.2929,-0.2897,-0.289,-0.2883,-0.2826,-0.2812,-0.2964,-0.2964,-0.2964,-0.2964,0,-0.2462,-0.2482,-0.2503,-0.2514,-0.2534,-0.2545,-0.2555,-0.259,-0.2655,-0.2671,-0.2744,-0.2838,-0.2888,-0.2932,-0.297,-0.2965,-0.2924,-0.2897,-0.2849,-0.2879,-0.282,-0.2805,-0.2967,-0.2967,-0.2966,-0.2966,0,0,-0.2458,-0.2491,-0.2495,-0.2451,-0.2529,-0.2507,-0.2556,-0.2573,-0.2588,-0.2675,-0.2678,-0.282,-0.2888,-0.2913,-0.2969,-0.2955,-0.2898,-0.2922,-0.2916,-0.2829,-0.2695,-0.2637,-0.2615,-0.2826,-0.2823,-0.2821,-0.2678,0,-0.2415,-0.2391,-0.2449,-0.2402,-0.2375,-0.2436,-0.2471,-0.2505,-0.2579,-0.2608,-0.2705,-0.2765,-0.2865,-0.2913,-0.2911,-0.2889,-0.2857,-0.294,-0.2711,-0.2706,-0.2618,-0.2596,-0.2434,-0.2288,-0.2663,-0.2661,-0.2659,0,-0.2377,-0.2358,-0.2343,-0.2304,-0.2309,-0.2322,-0.2379,-0.2387,-0.2467,-0.2529,-0.2614,-0.2686,-0.2748,-0.2801,-0.2757,-0.2786,-0.2748,-0.2733,-0.2724,-0.2644,-0.2619,-0.2319,-0.2247,-0.2634,-0.2636,-0.2638,-0.2639,0,-0.2308,-0.2266,-0.2269,-0.2253,-0.2261,-0.2262,-0.2283,-0.2378,-0.2411,-0.2466,-0.2532,-0.2583,-0.2625,-0.2571,-0.2626,-0.2646,-0.2525,-0.2529,-0.2439,-0.2435,-0.2244,-0.2227,-0.2439,-0.244,-0.244,-0.244,-0.2441,0,-0.2241,-0.2173,-0.2223,-0.2182,-0.2156,-0.2187,-0.2218,-0.223,-0.2332,-0.2383,-0.2486,-0.2538,-0.256,-0.2539,-0.2537,-0.2451,-0.2439,-0.2424,-0.2378,-0.2257,-0.2244,-0.2505,-0.2515,-0.2435,-0.2436,-0.2437,-0.2438,0,-0.2099,-0.2164,-0.208,-0.21,-0.2116,-0.207,-0.2154,-0.2181,-0.2286,-0.2335,-0.2359,-0.2464,-0.2426,-0.2446,-0.2362,-0.2343,-0.2263,-0.2231,-0.212,-0.2063,-0.225,-0.2263,-0.2072,-0.2068,-0.2065,-0.2062,-0.206,0,-0.2013,-0.2005,-0.2009,-0.2017,-0.2018,-0.2012,-0.2063,-0.2145,-0.2196,-0.2301,-0.2312,-0.2326,-0.2317,-0.22,-0.2143,-0.2045,-0.216,-0.1856,-0.1885,-0.223,-0.2204,-0.2223,-0.224,-0.1651,-0.1645,-0.1641,-0.1638,0,-0.1832,-0.1891,-0.1855,-0.1892,-0.1924,-0.1926,-0.1974,-0.2018,-0.2125,-0.2173,-0.2186,-0.2165,-0.2094,-0.1918,-0.1834,-0.178,-0.1857,-0.1763,-0.2076,-0.1793,-0.1826,-0.1805,-0.1836,-0.1599,-0.1603,-0.1606,-0.1608,-0.1609,-0.1717,-0.1689,-0.1752,-0.1743,-0.1796,-0.1826,-0.1795,-0.188,-0.1907,-0.1913,-0.1966,-0.1856,-0.1828,-0.1593,-0.1511,-0.1464,-0.1602,-0.1533,-0.1548,-0.1567,-0.1568,-0.1596,-0.1327,-0.1329,-0.1331,-0.1332,-0.1334,0,-0.1574,-0.16,-0.1614,-0.1633,-0.1646,-0.17,-0.1743,-0.17,-0.167,-0.1664,-0.1614,-0.1407,-0.128,-0.1275,-0.1132,-0.111,-0.1123,-0.1072,-0.1084,-0.1122,-0.1157,-0.1139,-0.0782,-0.0781,-0.0779,-0.0778,0,0,-0.1549,-0.148,-0.1498,-0.1481,-0.1518,-0.1468,-0.1453,-0.1384,-0.1341,-0.1223,-0.1143,-0.1166,-0.12,-0.0972,-0.0935,-0.0827,-0.0967,-0.0789,-0.1229,-0.1279,-0.1311,-0.1416,-0.1431,0,0,0,0,0]},{"header":{"parameterUnit":"m.s-1","parameterCategory":2,"la1":30.2991,"la2":30.254,"lo1":-89.0895,"lo2":-89.0444,"dy":0.0017,"dx":0.0017,"nx":28,"ny":28,"refTime":"2023-11-04T03:00:00:Z","depth":"2","parameterNumber":3,"parameterNumberName":"V-component_of_CURRENTS"},"data":[0,0,0,0,0,0,0,0,0,0,0,0,0,0,0,0,0,0,0,0,0,0,0,0,0,0,0,0,0,0,0,0,0,0,0,0,0,0,0,0,0,0,0,0,0,0,0,0,0,0,0,0,0,0,0,0,0,0,-0.0105,-0.0104,0,-0.0017,-0.0016,-0.0014,0.0069,0.007,0.007,0.0071,0.0226,0.023,0.0233,0,0,0,0,0,0,0,0,0,0,0,0,0,-0.014,-0.014,-0.0105,-0.0104,-0.0104,-0.0017,-0.0015,-0.0014,0.0069,0.007,0.0071,0.0071,0.0225,0.0229,0.0234,0,0,0,0,0,0,0,0,0,0,0,0,0,-0.0093,-0.014,-0.0105,-0.0055,-0.005,-0.0017,-0.0015,-0.0013,0.0069,0.007,0.0071,0.0072,0.0224,0.0229,0.0234,0.0245,0,0,0.025,0.0252,0,0,0,0,0,0,0,0,-0.0095,-0.0091,-0.0063,-0.0058,-0.0052,0.0013,0.0029,0.0075,0.0068,0.0028,0.0071,0.0072,0.0158,0.0169,0.0187,0.0253,0.0259,0.0251,0.0254,0.0256,0.0257,0,0,0,0,0,0,0,-0.0099,-0.0094,-0.0066,-0.0062,-0.0056,-0.0015,-0.0008,0.0038,0.009,0.0031,0.0037,0.004,0.0162,0.0182,0.0192,0.0262,0.025,0.0255,0.0258,0.026,0.0421,0.0422,0,0,0,0,0,0,-0.0122,-0.0098,-0.0069,-0.0064,-0.0076,-0.0016,-0.0007,-0.0006,0.0088,0.0102,0.0039,0.0044,0.0173,0.0186,0.0198,0.0265,0.0256,0.0261,0.0264,0.0419,0.0421,0.0422,0,0,0,0,0,0,-0.0123,-0.012,-0.0073,-0.0081,-0.0073,-0.0018,-0.0016,-0.0005,0.0023,0.0093,0.0109,0.0056,0.0174,0.019,0.026,0.0269,0.0263,0.0268,0.0418,0.042,0.0421,0.0368,0,0,0,0,0,0,-0.0124,-0.0121,-0.0125,-0.0083,-0.0074,-0.0063,-0.0017,-0.0004,0.0021,0.0028,0.0112,0.0127,0.0176,0.0252,0.0265,0.0277,0.0272,0.0417,0.0419,0.0421,0.0368,0.0367,0.0367,0,0,0,0,0,-0.0126,-0.0136,-0.0125,-0.0122,-0.0082,-0.0065,-0.0056,-0.0009,0.0021,0.0023,0.01,0.0125,0.0275,0.0257,0.0272,0.0285,0.0416,0.0418,0.0421,0.0369,0.0368,0.0367,0,0,0,0,0,0,-0.0155,-0.0128,-0.0115,-0.0117,-0.0099,-0.0052,-0.0043,-0.0013,0.0048,0.007,0.0139,0.0159,0.0215,0.0264,0.0243,0.034,0.0349,0.0355,0.0304,0.0304,0.0303,0.0294,0.0276,0,0,0,0,0,-0.0167,-0.0171,-0.0138,-0.0147,-0.0133,-0.0089,-0.0073,-0.0041,0.0013,0.0041,0.01,0.0176,0.0235,0.0281,0.0329,0.0389,0.0401,0.041,0.0409,0.0408,0.0413,0.0426,0.0425,0.043,0.043,0.043,0,0,-0.019,-0.0172,-0.0177,-0.0154,-0.0128,-0.0121,-0.0075,-0.0053,-0.0036,0.0049,0.01,0.0162,0.0246,0.0308,0.034,0.0356,0.0412,0.0411,0.0409,0.0416,0.0428,0.0427,0.0426,0.0432,0.0432,0.0431,0,0,-0.0239,-0.0211,-0.0229,-0.0216,-0.0183,-0.0142,-0.014,-0.0087,-0.0049,0.0004,0.0071,0.0156,0.0234,0.0313,0.0359,0.0391,0.0392,0.0394,0.0403,0.0414,0.0413,0.0412,0.0412,0.0412,0.0413,0.0413,0.0412,0,-0.0266,-0.0277,-0.0235,-0.0246,-0.0232,-0.0157,-0.0165,-0.012,-0.0051,-0.0018,0.0014,0.0161,0.0244,0.0331,0.0361,0.0389,0.0377,0.0393,0.0409,0.0409,0.0409,0.0409,0.0409,0.041,0.0411,0.0411,0.0411,0,-0.0326,-0.0332,-0.0338,-0.0321,-0.0301,-0.0291,-0.0227,-0.0194,-0.0127,-0.0072,0.0015,0.0137,0.0226,0.0272,0.034,0.0391,0.0373,0.0384,0.0399,0.0404,0.0405,0.0406,0.0407,0.0408,0.0409,0.0409,0,0,-0.0389,-0.0382,-0.0388,-0.0389,-0.0331,-0.0321,-0.0286,-0.0227,-0.0199,-0.0103,-0.0064,0.0099,0.0167,0.0228,0.0317,0.0372,0.0389,0.0384,0.0386,0.0364,0.0383,0.0439,0.0445,0.0375,0.0376,0.0376,0.0377,0,-0.0444,-0.0485,-0.0457,-0.0475,-0.0472,-0.0402,-0.038,-0.0316,-0.0234,-0.0179,-0.0034,0.0039,0.0146,0.0197,0.0267,0.0355,0.039,0.0387,0.0401,0.0402,0.0434,0.0449,0.0427,0.0432,0.0378,0.0378,0.0379,0,-0.0512,-0.0515,-0.0557,-0.0534,-0.0527,-0.0524,-0.0459,-0.0433,-0.0331,-0.0271,-0.0166,-0.0072,0.0065,0.0129,0.0273,0.0249,0.0312,0.0379,0.0379,0.0454,0.0461,0.0426,0.0436,0.0381,0.038,0.038,0.038,0,-0.0573,-0.0584,-0.0614,-0.0613,-0.0578,-0.0576,-0.0541,-0.0458,-0.0429,-0.0333,-0.0299,-0.0152,-0.0068,0.0027,0.0217,0.0215,0.0341,0.0346,0.0448,0.0451,0.0454,0.0458,0.0407,0.0407,0.0407,0.0407,0.0407,0,-0.0643,-0.0663,-0.0648,-0.067,-0.0677,-0.0635,-0.063,-0.058,-0.0515,-0.0477,-0.035,-0.0283,-0.0093,0.0023,0.0155,0.0324,0.0287,0.0453,0.0462,0.0437,0.0439,0.0418,0.0419,0.0407,0.0407,0.0407,0.0407,0,-0.0722,-0.0724,-0.0743,-0.0722,-0.0717,-0.0723,-0.0692,-0.0689,-0.062,-0.0576,-0.0552,-0.0389,-0.0226,-0.004,0.0139,0.026,0.0402,0.0458,0.0423,0.0431,0.0505,0.0504,0.0544,0.0547,0.0548,0.055,0.0551,0,-0.0763,-0.0798,-0.0793,-0.0807,-0.0802,-0.0801,-0.0808,-0.0747,-0.073,-0.0622,-0.0605,-0.0444,-0.029,-0.0005,0.0224,0.0432,0.0441,0.0519,0.0546,0.0518,0.0522,0.0518,0.0515,0.0511,0.0512,0.0513,0.0513,0,-0.0826,-0.0837,-0.0847,-0.088,-0.0896,-0.0915,-0.0905,-0.0904,-0.0829,-0.0761,-0.0637,-0.0513,-0.0221,0.0049,0.0326,0.0441,0.049,0.0542,0.0507,0.0499,0.0493,0.0495,0.0491,0.052,0.0519,0.0518,0.0518,0.0518,-0.0851,-0.0881,-0.091,-0.0935,-0.0972,-0.1013,-0.1016,-0.0972,-0.0924,-0.0774,-0.066,-0.0417,-0.0192,0.0246,0.0418,0.0579,0.0574,0.0615,0.0609,0.0604,0.0619,0.062,0.0671,0.0671,0.0671,0.0671,0.0671,0,-0.0872,-0.0923,-0.0964,-0.1008,-0.1076,-0.1074,-0.1075,-0.1034,-0.0947,-0.0751,-0.0571,-0.0263,0.0025,0.0256,0.0527,0.0675,0.0644,0.0685,0.0617,0.061,0.0604,0.0617,0.0669,0.067,0.067,0.0671,0,0,-0.0897,-0.0945,-0.0976,-0.1084,-0.1137,-0.1196,-0.1193,-0.1066,-0.0906,-0.0659,-0.0434,-0.0191,0.0073,0.0268,0.0434,0.0567,0.0544,0.0568,0.0554,0.0445,0.0438,0.0549,0.056,0,0,0,0,0]}],[{"header":{"parameterUnit":"m.s-1","parameterCategory":2,"la1":30.2991,"la2":30.254,"lo1":-89.0895,"lo2":-89.0444,"dy":0.0017,"dx":0.0017,"nx":28,"ny":28,"refTime":"2023-11-04T03:00:00:Z","depth":"4","parameterNumber":2,"parameterNumberName":"U-component_of_CURRENTS"},"data":[0,0,0,0,0,0,0,0,0,0,0,0,0,0,0,0,0,0,0,0,0,0,0,0,0,0,0,0,0,0,0,0,0,0,0,0,0,0,0,0,0,0,0,0,0,0,0,0,0,0,0,0,0,0,0,0,0,0,-0.1083,-0.1084,0,-0.116,-0.1161,-0.1162,-0.1195,-0.1195,-0.1195,-0.1195,-0.1265,-0.1267,-0.1269,0,0,0,0,0,0,0,0,0,0,0,0,0,-0.0995,-0.0996,-0.1083,-0.1084,-0.1085,-0.116,-0.1161,-0.1162,-0.1195,-0.1195,-0.1195,-0.1195,-0.1265,-0.1267,-0.1269,0,0,0,0,0,0,0,0,0,0,0,0,0,-0.1047,-0.0997,-0.1083,-0.1112,-0.1116,-0.116,-0.1161,-0.1162,-0.1195,-0.1195,-0.1195,-0.1195,-0.1264,-0.1267,-0.1269,-0.1283,0,0,-0.1277,-0.1279,0,0,0,0,0,0,0,0,-0.1044,-0.105,-0.1107,-0.1111,-0.1115,-0.117,-0.1156,-0.1203,-0.1195,-0.1163,-0.1195,-0.1195,-0.1234,-0.1239,-0.125,-0.1286,-0.1289,-0.1278,-0.1279,-0.128,-0.1281,0,0,0,0,0,0,0,-0.104,-0.1047,-0.1111,-0.1108,-0.1113,-0.1133,-0.114,-0.1165,-0.1195,-0.1165,-0.1169,-0.1181,-0.1236,-0.1248,-0.1252,-0.129,-0.1278,-0.128,-0.1282,-0.1283,-0.1404,-0.1405,0,0,0,0,0,0,-0.1034,-0.1043,-0.1109,-0.1114,-0.1081,-0.1135,-0.1142,-0.115,-0.1195,-0.1202,-0.1181,-0.1182,-0.1243,-0.1249,-0.1255,-0.1324,-0.128,-0.1283,-0.1284,-0.1402,-0.1404,-0.1406,0,0,0,0,0,0,-0.1031,-0.1039,-0.1106,-0.1082,-0.1092,-0.1136,-0.1145,-0.1152,-0.118,-0.1207,-0.1214,-0.1204,-0.1243,-0.1251,-0.1306,-0.1325,-0.1284,-0.1286,-0.14,-0.1403,-0.1405,-0.1431,0,0,0,0,0,0,-0.1028,-0.1037,-0.1048,-0.1082,-0.1094,-0.1139,-0.1145,-0.1153,-0.1188,-0.1191,-0.1229,-0.1235,-0.1244,-0.1302,-0.1309,-0.1328,-0.1289,-0.1398,-0.1402,-0.1404,-0.1428,-0.1434,-0.1439,0,0,0,0,0,-0.1025,-0.1033,-0.1048,-0.1056,-0.1104,-0.114,-0.1148,-0.1178,-0.1189,-0.1203,-0.1242,-0.1234,-0.1325,-0.1306,-0.1313,-0.1334,-0.1397,-0.1401,-0.1404,-0.1426,-0.1433,-0.1439,0,0,0,0,0,0,-0.1001,-0.1038,-0.1055,-0.1075,-0.1111,-0.1147,-0.1166,-0.1188,-0.1229,-0.1239,-0.126,-0.1269,-0.1322,-0.133,-0.1308,-0.138,-0.1358,-0.1363,-0.1372,-0.1379,-0.1384,-0.1371,-0.1291,0,0,0,0,0,-0.1002,-0.1012,-0.1058,-0.1072,-0.1095,-0.1135,-0.1156,-0.118,-0.1219,-0.1237,-0.1271,-0.1307,-0.134,-0.1362,-0.1391,-0.1434,-0.1438,-0.1452,-0.1457,-0.1462,-0.1457,-0.1495,-0.1503,-0.1418,-0.1418,-0.1418,0,0,-0.0999,-0.1017,-0.1027,-0.1068,-0.1099,-0.1145,-0.1148,-0.1187,-0.1226,-0.1239,-0.1306,-0.133,-0.1357,-0.1406,-0.1429,-0.1417,-0.149,-0.1466,-0.147,-0.1463,-0.15,-0.1508,-0.1515,-0.142,-0.142,-0.142,0,0,-0.0995,-0.1016,-0.1032,-0.1069,-0.112,-0.1153,-0.1169,-0.1226,-0.125,-0.1317,-0.1333,-0.1367,-0.1434,-0.1446,-0.1461,-0.1514,-0.1518,-0.1534,-0.1551,-0.1588,-0.1595,-0.1601,-0.1618,-0.1625,-0.1536,-0.1536,-0.1536,0,-0.0994,-0.1018,-0.1044,-0.1079,-0.1116,-0.1161,-0.1206,-0.1242,-0.1311,-0.1336,-0.1345,-0.1434,-0.1446,-0.1491,-0.151,-0.1523,-0.1548,-0.152,-0.1594,-0.16,-0.1605,-0.1621,-0.1629,-0.1538,-0.1538,-0.1538,-0.1537,0,-0.1007,-0.1043,-0.1057,-0.112,-0.1165,-0.1203,-0.1268,-0.1315,-0.1358,-0.1393,-0.1454,-0.1477,-0.1525,-0.1534,-0.154,-0.1587,-0.1594,-0.1595,-0.1571,-0.1615,-0.1629,-0.1637,-0.154,-0.154,-0.1539,-0.1539,0,0,-0.0963,-0.1049,-0.1058,-0.1105,-0.1189,-0.1232,-0.1301,-0.137,-0.1423,-0.1473,-0.1531,-0.1563,-0.1573,-0.159,-0.1596,-0.1619,-0.167,-0.163,-0.1631,-0.1636,-0.1756,-0.1607,-0.1601,-0.1699,-0.1701,-0.1702,-0.1749,0,-0.0969,-0.1038,-0.108,-0.1171,-0.1225,-0.1292,-0.1354,-0.1426,-0.1485,-0.1556,-0.1565,-0.1624,-0.1596,-0.1626,-0.1643,-0.1674,-0.1692,-0.1656,-0.1721,-0.1723,-0.1576,-0.1605,-0.1707,-0.1754,-0.1756,-0.1757,-0.1758,0,-0.0962,-0.102,-0.1099,-0.1212,-0.1242,-0.1308,-0.1424,-0.1481,-0.1572,-0.1616,-0.1663,-0.169,-0.1723,-0.17,-0.1746,-0.1737,-0.1746,-0.1755,-0.1757,-0.161,-0.1587,-0.1703,-0.1772,-0.177,-0.1769,-0.1769,-0.1768,0,-0.0917,-0.1029,-0.1092,-0.1133,-0.1269,-0.1324,-0.1397,-0.1502,-0.1556,-0.1658,-0.1713,-0.1757,-0.179,-0.1813,-0.1806,-0.1806,-0.1855,-0.1856,-0.1724,-0.1714,-0.1822,-0.1815,-0.1887,-0.1887,-0.1887,-0.1887,-0.1887,0,-0.0887,-0.0949,-0.1087,-0.1127,-0.1229,-0.1322,-0.1424,-0.15,-0.1603,-0.1665,-0.1736,-0.1776,-0.1827,-0.1853,-0.1845,-0.1788,-0.1883,-0.1721,-0.1714,-0.1833,-0.1827,-0.1827,-0.182,-0.1889,-0.1888,-0.1888,-0.1888,0,-0.0822,-0.0903,-0.0997,-0.115,-0.121,-0.1282,-0.1441,-0.1506,-0.1608,-0.1693,-0.1726,-0.1815,-0.1833,-0.1851,-0.1886,-0.1816,-0.1793,-0.175,-0.1865,-0.1866,-0.1625,-0.1619,-0.1622,-0.1617,-0.1613,-0.1609,-0.1606,0,-0.0792,-0.0828,-0.1002,-0.1073,-0.115,-0.1278,-0.1362,-0.1493,-0.1557,-0.1689,-0.1714,-0.1777,-0.1811,-0.1731,-0.1765,-0.1729,-0.1699,-0.1685,-0.1651,-0.1603,-0.1598,-0.1598,-0.1597,-0.16,-0.1598,-0.1597,-0.1596,0,-0.0736,-0.0796,-0.088,-0.1029,-0.1138,-0.1246,-0.1372,-0.1411,-0.1538,-0.1643,-0.1649,-0.1641,-0.1653,-0.1639,-0.1611,-0.1587,-0.1696,-0.1642,-0.165,-0.1618,-0.1576,-0.1575,-0.1579,-0.1582,-0.1584,-0.1585,-0.1586,0,-0.0683,-0.0731,-0.0844,-0.098,-0.1108,-0.1188,-0.1263,-0.1337,-0.1404,-0.1535,-0.1527,-0.1574,-0.1636,-0.1565,-0.1545,-0.1497,-0.1475,-0.1428,-0.1448,-0.1464,-0.1383,-0.1306,-0.1217,0,0,0,0,0,-0.0611,-0.0672,-0.0795,-0.0934,-0.1059,-0.1129,-0.1265,-0.1331,-0.1451,-0.1409,-0.146,-0.145,-0.1406,-0.1435,-0.1349,-0.1482,-0.1491,-0.1377,-0.1451,-0.1502,-0.1519,-0.1434,0,0,0,0,0,0,-0.0565,-0.0651,-0.076,-0.088,-0.0954,-0.1068,-0.114,-0.1217,-0.1205,-0.1311,-0.1291,-0.1352,-0.133,-0.1418,-0.1313,-0.1319,-0.1334,-0.1404,-0.14,-0.1493,-0.1508,-0.1521,-0.144,0,0,0,0,0]},{"header":{"parameterUnit":"m.s-1","parameterCategory":2,"la1":30.2991,"la2":30.254,"lo1":-89.0895,"lo2":-89.0444,"dy":0.0017,"dx":0.0017,"nx":28,"ny":28,"refTime":"2023-11-04T03:00:00:Z","depth":"4","parameterNumber":3,"parameterNumberName":"V-component_of_CURRENTS"},"data":[0,0,0,0,0,0,0,0,0,0,0,0,0,0,0,0,0,0,0,0,0,0,0,0,0,0,0,0,0,0,0,0,0,0,0,0,0,0,0,0,0,0,0,0,0,0,0,0,0,0,0,0,0,0,0,0,0,0,-0.0224,-0.0224,0,-0.0199,-0.0198,-0.0198,-0.0158,-0.0158,-0.0157,-0.0157,-0.0107,-0.0107,-0.0106,0,0,0,0,0,0,0,0,0,0,0,0,0,-0.0193,-0.0194,-0.0224,-0.0224,-0.0224,-0.0199,-0.0198,-0.0198,-0.0158,-0.0158,-0.0157,-0.0156,-0.0108,-0.0107,-0.0106,0,0,0,0,0,0,0,0,0,0,0,0,0,-0.019,-0.0194,-0.0224,-0.0202,-0.02,-0.0199,-0.0198,-0.0198,-0.0158,-0.0158,-0.0157,-0.0156,-0.0108,-0.0107,-0.0106,-0.0115,0,0,-0.0102,-0.0102,0,0,0,0,0,0,0,0,-0.019,-0.0191,-0.0206,-0.0204,-0.0202,-0.0182,-0.0169,-0.0169,-0.0159,-0.0173,-0.0157,-0.0156,-0.0132,-0.0129,-0.0124,-0.0113,-0.0111,-0.0102,-0.0101,-0.0101,-0.01,0,0,0,0,0,0,0,-0.019,-0.0191,-0.0213,-0.0206,-0.0203,-0.0178,-0.0177,-0.0169,-0.0156,-0.0171,-0.0169,-0.0169,-0.013,-0.0125,-0.0122,-0.011,-0.0102,-0.0101,-0.01,-0.01,-0.0086,-0.0086,0,0,0,0,0,0,-0.02,-0.0192,-0.0213,-0.0212,-0.0195,-0.018,-0.0178,-0.0188,-0.0156,-0.0151,-0.017,-0.0167,-0.0128,-0.0124,-0.012,-0.012,-0.0101,-0.01,-0.0099,-0.0085,-0.0086,-0.0086,0,0,0,0,0,0,-0.02,-0.0203,-0.0214,-0.0202,-0.0202,-0.0182,-0.0192,-0.0188,-0.0183,-0.0155,-0.0149,-0.0169,-0.0127,-0.0122,-0.0112,-0.0118,-0.0099,-0.0098,-0.0085,-0.0086,-0.0086,-0.0125,0,0,0,0,0,0,-0.0199,-0.0203,-0.0213,-0.0203,-0.0203,-0.0219,-0.0193,-0.0188,-0.0185,-0.0181,-0.0153,-0.0148,-0.0126,-0.0114,-0.0111,-0.0116,-0.0097,-0.0085,-0.0085,-0.0086,-0.0123,-0.0126,-0.0129,0,0,0,0,0,-0.0199,-0.0221,-0.0214,-0.0217,-0.0218,-0.022,-0.0218,-0.0198,-0.0186,-0.0189,-0.0166,-0.0149,-0.0115,-0.0113,-0.0109,-0.0114,-0.0084,-0.0085,-0.0086,-0.0122,-0.0126,-0.0129,0,0,0,0,0,0,-0.0211,-0.0219,-0.0211,-0.0234,-0.0228,-0.0214,-0.0218,-0.0205,-0.019,-0.0187,-0.0155,-0.0148,-0.0141,-0.0125,-0.0123,-0.0112,-0.0096,-0.0097,-0.0125,-0.0129,-0.0132,-0.013,-0.0096,0,0,0,0,0,-0.0221,-0.0241,-0.0235,-0.0253,-0.0252,-0.0236,-0.0234,-0.0224,-0.0211,-0.0203,-0.0181,-0.0159,-0.0143,-0.0133,-0.0119,-0.0116,-0.0072,-0.0116,-0.0119,-0.0122,-0.0118,-0.0038,-0.0033,-0.0089,-0.0089,-0.0089,0,0,-0.023,-0.0237,-0.0247,-0.0257,-0.025,-0.0255,-0.0232,-0.0238,-0.0238,-0.0201,-0.0194,-0.0173,-0.0146,-0.0138,-0.0133,-0.0124,-0.0089,-0.0123,-0.0125,-0.012,-0.0038,-0.0032,-0.0027,-0.0089,-0.0089,-0.0089,0,0,-0.0261,-0.0265,-0.0291,-0.0287,-0.0288,-0.0277,-0.0281,-0.027,-0.026,-0.0258,-0.0225,-0.0205,-0.0189,-0.016,-0.0146,-0.016,-0.011,-0.016,-0.0172,-0.0095,-0.0089,-0.0083,-0.0041,-0.0031,-0.0159,-0.0159,-0.0159,0,-0.0267,-0.03,-0.0296,-0.0311,-0.0309,-0.0289,-0.0303,-0.0293,-0.0278,-0.0264,-0.0262,-0.0212,-0.0197,-0.0164,-0.0173,-0.0166,-0.0121,-0.016,-0.0097,-0.0091,-0.0084,-0.0042,-0.003,-0.0161,-0.0161,-0.0161,-0.016,0,-0.031,-0.0332,-0.0345,-0.0356,-0.0353,-0.0364,-0.0348,-0.0341,-0.0328,-0.0308,-0.0279,-0.025,-0.0212,-0.0211,-0.0201,-0.0151,-0.0136,-0.0111,-0.0085,-0.008,-0.0037,-0.0024,-0.0164,-0.0163,-0.0163,-0.0162,0,0,-0.0325,-0.0369,-0.0371,-0.0382,-0.0377,-0.038,-0.0376,-0.036,-0.0345,-0.0325,-0.0292,-0.0274,-0.0242,-0.0224,-0.0196,-0.0143,-0.0078,-0.0114,-0.0109,-0.0069,0.0078,0.0053,0.0064,-0.003,-0.0028,-0.0026,0.0083,0,-0.0354,-0.0406,-0.0412,-0.0437,-0.0452,-0.0427,-0.0421,-0.0399,-0.0373,-0.0334,-0.0288,-0.0254,-0.025,-0.0228,-0.0173,-0.0096,-0.0042,-0.0111,0.0065,0.007,0.0051,0.0079,-0.0019,0.0093,0.0096,0.0098,0.0099,0,-0.0385,-0.0413,-0.0461,-0.0475,-0.0477,-0.0484,-0.0454,-0.0449,-0.0387,-0.036,-0.0305,-0.0258,-0.0188,-0.018,-0.0038,-0.0077,-0.0006,0.0051,0.0057,0.006,0.0069,0.0093,0.0123,0.0121,0.0119,0.0118,0.0116,0,-0.0401,-0.0441,-0.0485,-0.0489,-0.0501,-0.0505,-0.05,-0.0455,-0.0442,-0.0366,-0.0335,-0.0238,-0.0186,-0.0075,0.0017,0.0009,0.0179,0.019,0.0233,0.0231,0.0238,0.0232,0.0305,0.0305,0.0304,0.0304,0.0304,0,-0.0429,-0.0457,-0.0498,-0.052,-0.0541,-0.0532,-0.0535,-0.0509,-0.0459,-0.0429,-0.0349,-0.0296,-0.0152,-0.0047,0.0041,0.0167,0.0205,0.0239,0.0269,0.0214,0.0203,0.0246,0.0238,0.0308,0.0307,0.0306,0.0306,0,-0.0447,-0.0483,-0.0524,-0.0551,-0.0561,-0.0571,-0.0574,-0.057,-0.0516,-0.0467,-0.0441,-0.0318,-0.018,-0.0052,0.0132,0.0191,0.0317,0.0352,0.0263,0.0284,0.0311,0.0299,0.0427,0.0427,0.0427,0.0427,0.0427,0,-0.0462,-0.0494,-0.055,-0.0577,-0.0598,-0.0615,-0.063,-0.0601,-0.0583,-0.0483,-0.0453,-0.0315,-0.0224,0.0015,0.0142,0.0324,0.0338,0.0399,0.037,0.0313,0.0329,0.0317,0.0305,0.0428,0.0428,0.0428,0.0428,0,-0.0474,-0.0507,-0.0543,-0.0607,-0.0642,-0.0674,-0.0683,-0.0669,-0.0616,-0.0569,-0.0438,-0.0306,-0.0151,0.002,0.0157,0.0282,0.0361,0.0401,0.0402,0.0375,0.0316,0.0329,0.0317,0.0429,0.0429,0.0429,0.0428,0,-0.0466,-0.0499,-0.0566,-0.0616,-0.0675,-0.0716,-0.0715,-0.0676,-0.0647,-0.0521,-0.0478,-0.0304,-0.0189,-0.0001,0.0124,0.0245,0.0273,0.0305,0.0311,0.0311,0.0234,0.0139,0.0235,0,0,0,0,0,-0.0438,-0.0502,-0.0568,-0.0636,-0.0706,-0.0746,-0.0746,-0.073,-0.0669,-0.0579,-0.052,-0.0371,-0.0152,-0.0054,0.0066,0.0102,0.0268,0.0243,0.0301,0.0433,0.0432,0.0358,0,0,0,0,0,0,-0.0427,-0.0499,-0.0566,-0.0657,-0.0715,-0.0785,-0.0794,-0.0753,-0.0681,-0.0593,-0.0472,-0.0368,-0.0159,-0.023,0.0056,0.0095,0.0144,0.0357,0.0359,0.0433,0.0433,0.0432,0.0355,0,0,0,0,0]}]]